Regional Weather Roundup
Issued by NWS Glasgow, MT

Home | Current Version | Previous Version | Text Only | Print | Product List | Glossary On
Versions: 1 2 3 4 5 6 7 8 9 10 11 12 13 14 15 16 17 18 19 20 21 22 23 24 25 26 27 28 29 30 31 32 33 34 35 36 37 38 39 40 41 42 43 44 45 46 47 48 49 50
000
ASUS45 KGGW 312015
RWRGGW
HOURLY WEATHER ROUNDUP FOR NORTHEAST MONTANA
NATIONAL WEATHER SERVICE GLASGOW MONTANA
100 PM MST SAT JAN 31 2015

NOTE: "FAIR" INDICATES FEW OR NO CLOUDS BELOW 12,000 FEET WITH NO
SIGNIFICANT WEATHER AND/OR OBSTRUCTIONS TO VISISBILITY.

NORTHEAST MONTANA


CITY           SKY/WX    TMP DP  RH WIND       PRES   REMARKS
GLASGOW        LGT SNOW  12   6  77 E20       30.23S VSB 3/4 WCI  -6
PLENTYWOOD       N/A      8   3  80 E20         N/A  WCI -11
WOLF POINT     LGT SNOW  13   7  77 NE25G31   30.27R VSB 3/4 WCI  -7
JORDAN           N/A     19  15  84 NE20G26   30.14R
WINNETT          N/A     25  23  92 W12G20      N/A
SIDNEY         CLOUDY    12   9  85 NE17      30.27R WCI  -5
GLENDIVE       CLOUDY    18  16  93 NE20G25   30.13S VSB 1/2
MALTA            N/A     14  11  87 NE15G23     N/A  WCI  -1
SCOBEY           N/A      9  -1  64 NE16      30.26R WCI  -8

FORT PECK REPORTS


CITY           SKY/WX    TMP DP  RH WIND       PRES   REMARKS
FORT PECK        N/A     13  11  92 NE20G28     N/A  WCI  -5
THE PINES        N/A     14  12  92 NE20G35     N/A  WCI  -3

SOUTHEAST MONTANA


CITY           SKY/WX    TMP DP  RH WIND       PRES   REMARKS
BILLINGS       LGT SNOW  30  23  75 NE18      30.05R
MILES CITY     LGT SNOW  25  22  88 NE18      30.03R FOG
BAKER          MIX PCPN  21  19  92 E21G29    30.03S FOG
LIVINGSTON     CLOUDY    33  20  58 NW20G30   30.03R

CENTRAL MONTANA


CITY           SKY/WX    TMP DP  RH WIND       PRES   REMARKS
HAVRE          LGT SNOW  13   7  77 NE18      30.31R WCI  -4
LEWISTOWN      LGT SNOW  19  15  84 NW16G23   30.14R VSB 3/4
GREAT FALLS    LGT SNOW  16   9  73 NW15      30.28R VSB 1
CUT BANK       LGT SNOW  11   5  77 N20G28    30.29S WCI  -7
HELENA         CLOUDY    23  12  62 NW14G24   30.22R
BUTTE          PTSUNNY   37  17  44 W14       30.02F
BOZEMAN        PTSUNNY   36  25  64 N8        30.05S

WESTERN MONTANA


CITY           SKY/WX    TMP DP  RH WIND       PRES   REMARKS
MISSOULA       CLOUDY    32  26  78 W5        30.15F
KALISPELL      NOT AVBL

NORTH DAKOTA


CITY           SKY/WX    TMP DP  RH WIND       PRES   REMARKS
WILLISTON      LGT SNOW   8   2  76 NE16      30.31S VSB 1   WCI -10
DICKINSON      LGT SNOW  12   7  80 E17       30.15R WCI  -5
MINOT          LGT SNOW   3  -4  72 NE13      30.36F VSB 1   WCI -14
BISMARCK       MOSUNNY   15   4  61 NE20G26   30.28S WCI  -2

SOUTHERN SASKATCHEWAN


CITY           SKY/WX    TMP DP  RH WIND       PRES   REMARKS
REGINA         CLOUDY     0 -11  60 NE6       30.48R
ESTEVAN        CLOUDY     1  -8  66 NE14      30.40S WCI -17
SWIFT CURRENT  PTSUNNY    0  -4  85 NE13      30.39R WCI -18



USA.gov is the U.S. government's official web portal to all federal, state and local government web resources and services.